Location: Buena Vista
(37.7110°N, 119.7938°W)
Time: 17:54:11
(UTC+00:00)

Oscar 19 - Visible Passes

Search period start: 07 October 2024 00:00
Search period end: 17 October 2024 00:00
Orbit: 771 x 787 km, 98.9° (Epoch: 06 October)

Date Brightness Start Highest point End Pass type
(mag) Time Alt. Az. Time Alt. Az. Time Alt. Az.
07 Oct 11.8 13:05:55 10° NNE 13:10:53 47° E 13:15:48 10° S visible
08 Oct 14.1 02:02:04 10° SW 02:04:55 15° W 02:07:47 10° WNW visible
08 Oct 13.2 12:34:04 10° NE 12:38:04 23° E 12:42:02 10° SE visible
09 Oct 14.1 12:05:05 10° E 12:05:06 10° E 12:05:07 10° E visible
10 Oct 11.8 13:07:15 10° NNE 13:12:14 48° E 13:17:09 10° S visible
11 Oct 14.1 02:03:30 10° SW 02:06:17 14° W 02:09:03 10° WNW visible
11 Oct 13.2 12:35:23 10° NE 12:39:25 23° E 12:43:24 10° SSE visible
12 Oct 14.1 12:05:46 10° E 12:06:26 10° E 12:07:07 10° E visible
13 Oct 11.7 13:08:34 10° NNE 13:13:33 49° E 13:18:28 10° S visible
14 Oct 14.1 02:04:55 10° WSW 02:07:36 14° W 02:10:19 10° WNW visible
14 Oct 13.1 12:36:41 10° NE 12:40:44 23° E 12:44:46 10° SSE visible
15 Oct 14.0 12:06:49 10° E 12:07:46 10° E 12:08:42 10° E visible
16 Oct 11.7 13:09:52 10° NNE 13:14:51 50° E 13:19:47 10° S visible
